Weather Service Report


635 
ASUS43 KIND 101109
RWRIN 

WEATHER ROUNDUP FOR INDIANA
NATIONAL WEATHER SERVICE INDIANAPOLIS IN
600 AM EST WED FEB 10 2016

NOTE: "FAIR" INDICATES FEW OR NO CLOUDS BELOW 12,000 FEET WITH NO
SIGNIFICANT WEATHER AND/OR OBSTRUCTIONS TO VISIBILITY.

* - STATION DOES NOT REPORT WEATHER SUCH AS PRECIPITATION OR FOG.

+ - STATION NOT QUALITY CONTROLLED BY THE NATIONAL WEATHER SERVICE.
    USE DATA WITH CAUTION...ESPECIALLY DEWPOINT AND RELATIVE
    HUMIDITY OBSERVATIONS.

INZ001>003-010>013-019-020-101200-
NORTHWEST INDIANA
  
CITY           SKY/WX    TMP DP  RH WIND       PRES   REMARKS
GARY /AIRPORT/ PTCLDY    14   1  57 W17G29    29.98R WCI  -3          
KNOX *+        CLOUDY    16  10  79 W15       29.92R WCI   1          
LA PORTE +     LGT SNOW  18  15  88 W9G17     29.91R WCI   7          
MICHIGAN CITY+ LGT SNOW  19  14  79 NW13G22   29.92S WCI   7          
MONTICELLO +   CLOUDY    14   4  63 NW15      29.95R WCI  -1          
RENSSELAER +   CLOUDY    14   5  67 W13G18    29.97R WCI   0          
VALPARAISO     CLOUDY    14   6  70 NW15      29.93R WCI  -1          

$$

LMZ046-743>745-101200-
SOUTHERN LAKE MICHIGAN
  
STATION/POSITION TIME  TEMP    WIND        PRES    WAVE
                       AIR SEA DIR/SP/G            HT
                 (UTC) (F)     (DEG/KT/KT) (MB)    (FT)
BURNS HARBOR     1016   17     310/ 20/ 25 1013.9R
MICHIGAN CITY    1000   19     280/ 25/ 28   N/A

$$

INZ004-005-014>016-021>024-101200-
NORTH CENTRAL INDIANA
  
CITY           SKY/WX    TMP DP  RH WIND       PRES   REMARKS
GOSHEN         LGT SNOW  19  15  84 NW10      29.85R FOG     WCI   7  
LOGANSPORT +   CLOUDY    14   7  73 W12G18    29.95R WCI   0          
PERU/GRISSOM   FLURRIES  14   9  79 W14       29.91R WCI  -1          
ROCHESTER +    CLOUDY    18   9  68 W10G18    29.91R WCI   6          
SOUTH BEND     LGT SNOW  17  14  88 NW14      29.88R VSB 1   WCI   3  
WARSAW +       LGT SNOW  16  12  86 W13       29.87R WCI   2          

$$

INZ006>009-017-018-025>027-101200-
NORTHEAST INDIANA
  
CITY           SKY/WX    TMP DP  RH WIND       PRES   REMARKS
ANGOLA *+      CLOUDY    18  14  86 NW7       29.80R WCI   8          
AUBURN +       LGT SNOW  19  14  79 W6        29.84R WCI  11          
FORT WAYNE     LGT SNOW  17  11  77 W20       29.87R WCI   1          
HUNTINGTON +   FLURRIES  14   7  76 W15       29.88R WCI  -2          

$$

INZ028-029-035-036-043>045-051>053-101200-
WEST CENTRAL INDIANA
  
CITY           SKY/WX    TMP DP  RH WIND       PRES   REMARKS
GREENCASTLE +  CLOUDY    12   1  62 W7        30.01R WCI   2          
LAFAYETTE      CLOUDY    13   6  74 W12       29.99R WCI  -1          
TERRE HAUTE    CLOUDY    12   3  67 W12       30.06R WCI  -2          

$$

INZ030>032-037>040-046>048-054>057-064-065-101200-
CENTRAL INDIANA
  
CITY           SKY/WX    TMP DP  RH WIND       PRES   REMARKS
FISHERS *+     CLOUDY    12  10  92 W12       29.97R WCI  -2          
FRANKFORT +    PTCLDY    13   3  64 W15       29.98R WCI  -3          
GREENWOOD *+   CLOUDY    14  10  85 W9        29.98R WCI   2          
INDIANAPOLIS   FLURRIES  13   6  74 W15       29.97R WCI  -3          
-EAGLE CREEK   FLURRIES  13   7  77 W15       29.97R WCI  -3          
KOKOMO *+      CLOUDY    12   7  79 W15       29.93R WCI  -4          
MARION +       CLOUDY    13   4  68 W16       29.92R HAZE    WCI  -3  
MT COMFORT *+  CLOUDY    12   7  79 W13       29.96R WCI  -3          
SHELBYVILLE    LGT SNOW  15   8  73 W13       29.96R WCI   1          
ZIONSVILLE +   FLURRIES  12   7  81 W15G22    29.96R WCI  -4          

$$

INZ033-034-041-042-049-050-058-059-101200-
EAST CENTRAL INDIANA
  
CITY           SKY/WX    TMP DP  RH WIND       PRES   REMARKS
MUNCIE         LGT SNOW  15   9  76 W14       29.91R WCI   0          

$$

INZ060-061-067>069-081>083-085>088-101200-
SOUTHWEST INDIANA
  
CITY           SKY/WX    TMP DP  RH WIND       PRES   REMARKS
EVANSVILLE     CLOUDY    17   5  59 NW10G21   30.13R WCI   5          
HUNTINGBURG *+ CLOUDY    16   5  62 NW15G21   30.09R WCI   1          
WASHINGTON +   CLOUDY    14   6  72 W12       30.09R WCI   0          

$$

INZ062-063-066-070>080-084-089>092-101200-
SOUTH CENTRAL AND SOUTHEAST INDIANA
  
CITY           SKY/WX    TMP DP  RH WIND       PRES   REMARKS
BEDFORD +      LGT SNOW  14  12  92 W8        30.03R WCI   3          
BLOOMINGTON    LGT SNOW  14   9  80 W10       30.01R WCI   1          
MADISON *+     CLOUDY    16  10  79 W10       30.01R WCI   3          
NORTH VERNON + LGT SNOW  16  10  79 CALM      29.99R                  
SEYMOUR +      CLOUDY    16  10  79 W10G16    30.02R WCI   3          

$$

  

Return to Home page


Western Regional Climate Center, wrcc@dri.edu